Regional Weather Roundup
Issued by NWS State College, PA

Home | Current Version | Previous Version | Graphics & Text | Print | Product List | Glossary On
Versions: 1 2 3 4 5 6 7 8 9 10 11 12 13 14 15 16 17 18 19 20 21 22 23 24 25 26 27 28 29 30 31 32 33 34 35 36 37 38 39 40 41 42 43 44 45 46 47 48 49 50
000
ASUS41 KCTP 111603
RWRCTP

REGIONAL WEATHER ROUNDUP
NATIONAL WEATHER SERVICE STATE COLLEGE PA
1100 AM EST THU FEB 11 2016

Note: "fair" indicates few or no clouds below 12,000 feet with no
significant weather and/or obstructions to visibility.

* = STATION THAT DOES NOT REPORT PRECIPITATION /E.G. RAIN...SNOW...ETC/
    THUNDER OR FOG.

PAZ002>004-007>009-013>016-020>023-029>032-111700-
WESTERN PENNSYLVANIA

CITY           SKY/WX    TMP DP  RH WIND       PRES   REMARKS
ERIE           LGT SNOW  17   4  56 W18G28    30.09R WCI   1
MEADVILLE      LGT SNOW  13   3  64 W8G22     30.05R WCI   2
FRANKLIN*      CLOUDY    10   3  72 W14G23    30.05R WCI  -5
NEW CASTLE     LGT SNOW  14   9  80 W10       30.13R WCI   1
BEAVER COUNTY  CLOUDY    16   5  62 NW15G22   30.11R WCI   1
BUTLER*        CLOUDY    12   3  67 W10G20    30.13R VSB 3/4 WCI  -1
PITTSBURGH INT PTSUNNY   15   2  56 W18       30.12R WCI  -2
PITTSBURGH     CLOUDY    17   2  51 W16G24    30.10S WCI   2
INDIANA*       PTSUNNY   14   7  73 W12G22    30.08R HAZE    WCI   0
LATROBE        FLURRIES  14   3  62 MISG      30.12R
WASHINGTON CO* MOSUNNY   16   3  57 W13G21    30.14S WCI   2
$$

PAZ004>006-010>012-017>019-024>028-033>037-041-042-045-046-049>053-111700-
CENTRAL PENNSYLVANIA

CITY           SKY/WX    TMP DP  RH WIND       PRES   REMARKS
BRADFORD       HVY SNOW   9   2  73 NW17G24   29.90R VSB 1/4 WCI  -9
DUBOIS         CLOUDY    11   2  67 W23G32    29.95R HAZE    WCI  -9
CLEARFIELD     CLOUDY    14   1  56 W13G26    29.98R WCI   0
JOHNSTOWN      LGT SNOW   9  -1  64 W20G29    29.95R WCI -10
ALTOONA        LGT SNOW  13   4  67 NW18      30.02R WCI  -4
STATE COLLEGE  PTSUNNY   16   1  53 W25       29.98S WCI  -3
WILLIAMSPORT   CLOUDY    20   2  45 W17G25    29.98R WCI   5
SELINSGROVE    PTSUNNY   20   1  43 W12G18    30.02R WCI   8
FT INDIANTOWN  PTSUNNY   20   0  41 W12G23    30.01R WCI   8
CAPITAL CITY   SUNNY     22   2  42 NW21G30   30.05R WCI   6
HARRISBURG     MOSUNNY   21   6  52 NW29      30.05R WCI   3
YORK           PTSUNNY   20   3  48 W15G25    30.06R WCI   6
$$

PAZ038>040-043-044-047-048-054-055-060>062-067>071-111700-
EASTERN PENNSYLVANIA

CITY           SKY/WX    TMP DP  RH WIND       PRES   REMARKS
SCRANTON       CLOUDY    18   1  47 W23       29.89R WCI   0
MOUNT POCONO   CLOUDY    13  -5  44 NW20G33   29.79R WCI  -5
ALLENTOWN      MOSUNNY   22   2  42 W22G32    29.97R WCI   6
QUAKERTOWN*    PTSUNNY   21   1  42 W16       29.97S WCI   7
READING        MOSUNNY   21   2  43 W18G29    30.00R WCI   6
LANCASTER      MOSUNNY   20   4  50 W20G30    30.03R WCI   4
COATESVILLE    SUNNY     19   3  49 W21G30    30.01S WCI   3
POTTSTOWN      MOSUNNY   21   1  41 W18G24    30.01R WCI   6
BLUE BELL        N/A     23   3  42 W12G21    29.99R WCI  12
DOYLESTOWN     MOSUNNY   21   4  47 NW18G28   29.97R WCI   6
WILLOW GROVE   NOT AVBL
NORTH PHILA    CLOUDY    22   4  46 W22       30.03R WCI   6
PHILADELPHIA   CLOUDY    24   2  38 W24G32    30.04R WCI   8
$$



USA.gov is the U.S. government's official web portal to all federal, state and local government web resources and services.